RH
48 48 49 49 49 48 45 40 34 25 18 14 15 17 19 21 23 24 23 23 22 23 28 34 36 38 40 44 46 48 51 52 52 53 53 55 55 57 60 61 61 55 39 29 29 29 28 29 27 25 25 24 23 24 25 24 23 22 21 19 18 17 16
49 49 50 50 50 48 45 39 32 24 17 15 16 19 21 23 24 25 24 24 23 23 28 35 38 40 42 45 47 49 51 53 54 56 56 58 61 62 65 67 66 60 47 32 27 32 35 36 35 33 32 30 28 27 27 25 24 23 22 20 19 17 16
50 50 51 51 51 49 45 38 30 22 17 15 18 20 22 24 25 26 26 25 25 24 28 34 38 40 43 45 46 47 51 54 55 58 60 61 65 66 67 71 70 65 56 43 34 37 41 41 39 36 34 32 29 28 28 26 24 24 22 21 20 19 17
50 51 51 52 52 49 44 37 27 21 17 17 20 22 23 25 26 27 27 27 26 26 28 33 37 40 42 44 45 45 48 52 54 58 61 62 65 68 69 72 73 68 62 54 45 42 43 42 38 35 34 33 30 28 28 27 25 25 23 22 22 20 18
50 51 52 53 52 49 43 34 26 20 18 18 21 23 25 27 28 28 29 29 28 28 29 32 35 39 42 43 43 43 46 50 54 58 61 63 67 71 73 74 72 68 63 57 49 44 43 41 39 36 34 34 33 30 29 29 27 26 25 23 22 20 19
51 52 54 54 53 48 40 32 25 21 19 21 23 26 27 28 29 30 30 30 30 30 29 31 34 38 41 43 43 44 47 51 55 60 63 68 72 75 75 72 69 65 61 55 49 45 43 42 41 38 35 35 36 33 31 29 28 27 25 23 21 19 18
52 53 54 55 53 47 39 31 26 22 21 23 26 28 29 30 31 32 32 32 31 31 30 30 32 35 38 40 42 45 49 53 58 64 69 73 76 76 74 69 66 64 60 55 51 47 46 46 45 42 38 37 37 36 33 31 29 26 23 22 22 21 20
54 55 55 55 53 47 39 32 26 23 24 26 29 30 31 32 33 33 33 33 32 31 31 30 31 33 35 38 42 46 51 58 65 71 73 76 77 75 71 68 65 63 60 56 53 51 52 52 50 46 41 38 38 35 32 31 30 26 24 25 25 24 24
54 56 56 56 52 46 39 32 27 25 27 29 31 32 33 34 34 34 34 34 33 32 32 31 32 33 35 38 42 48 56 65 73 77 75 76 77 75 72 69 66 63 61 60 58 56 57 56 51 46 43 39 36 34 32 33 35 33 31 33 31 26 26
56 57 57 56 53 47 39 32 28 27 29 32 34 35 35 33 33 34 34 34 34 33 33 33 33 34 36 40 45 54 67 77 82 82 80 79 79 76 73 71 67 66 66 66 63 60 58 56 51 46 43 38 33 35 38 40 44 45 42 41 37 27 27
57 57 57 57 54 48 40 33 30 30 32 35 38 39 38 35 34 34 34 33 32 31 31 32 33 34 37 42 50 63 76 84 85 84 82 80 79 77 73 70 67 66 66 65 61 57 55 53 48 43 39 35 33 38 44 49 53 54 51 51 49 37 31
57 58 58 57 54 49 40 33 31 33 35 37 40 42 43 42 40 38 37 35 33 31 31 31 31 33 36 43 54 68 78 83 83 82 81 79 78 77 74 73 73 71 67 63 59 56 53 51 46 39 35 34 38 43 50 57 60 63 65 66 66 57 43
58 59 59 57 56 50 41 34 34 37 39 40 41 43 46 46 45 43 40 37 36 35 34 33 33 35 38 46 60 73 80 81 80 80 80 79 79 79 77 79 81 79 75 70 66 61 54 49 45 40 37 40 50 55 57 62 65 71 78 79 78 74 60
60 61 61 60 57 51 42 36 36 40 42 42 43 45 47 48 46 44 42 40 39 38 36 36 37 37 41 53 67 79 84 83 81 80 80 81 81 81 81 80 79 78 78 76 72 64 54 49 49 50 50 56 67 69 69 74 77 80 85 83 79 76 68
64 63 64 63 58 53 46 38 37 42 44 45 46 46 48 47 45 43 42 41 41 40 39 39 40 41 47 59 74 83 87 85 83 82 82 83 83 82 81 80 77 77 78 77 73 64 55 52 57 65 70 76 82 84 86 92 95 95 95 89 78 72 67
67 67 67 66 61 56 49 41 38 43 47 48 48 49 48 47 45 44 43 42 42 42 41 42 42 45 54 66 78 86 89 88 85 85 84 84 84 82 80 79 79 80 81 78 70 62 60 62 69 80 89 93 96 97 97 101 101 98 98 95 86 76 65
71 70 71 70 65 60 53 45 40 44 50 52 51 50 49 47 46 46 44 43 43 42 43 44 45 51 61 72 82 87 90 91 89 88 87 84 81 80 78 78 80 82 82 79 73 68 73 81 89 95 97 96 97 99 99 100 98 95 96 99 97 84 67
75 75 75 74 70 65 59 50 42 43 50 54 53 52 50 48 48 47 46 44 43 42 44 46 49 56 65 74 83 88 91 93 94 92 90 86 84 82 79 77 79 80 77 75 72 69 69 74 82 89 90 86 87 93 100 103 101 98 99 103 102 93 80
80 79 78 78 75 70 64 53 44 43 49 54 55 53 52 51 50 49 49 48 45 43 45 48 50 57 65 74 83 89 92 95 96 93 90 89 89 86 82 81 83 81 74 69 68 66 60 55 59 69 76 79 80 85 94 101 103 102 102 103 101 96 93
84 83 82 81 80 76 68 56 45 43 48 53 55 55 54 54 54 53 52 51 48 44 44 46 49 54 64 74 84 92 96 98 98 96 95 96 94 89 88 90 88 81 75 72 71 70 61 49 46 52 61 68 75 79 84 89 94 98 100 102 101 97 96
87 86 84 84 83 80 72 59 47 43 47 53 56 55 56 58 58 57 57 54 50 44 41 43 48 53 62 74 86 96 100 99 99 101 103 102 99 97 98 96 89 83 82 82 80 76 64 49 44 47 53 62 71 78 84 87 89 92 94 95 96 90 85
90 88 86 86 86 84 76 62 50 44 45 52 56 56 58 63 63 63 62 57 49 43 39 40 44 50 59 72 86 96 100 99 100 102 102 100 100 103 101 95 91 92 93 92 89 82 67 51 46 48 54 63 71 77 86 91 92 92 91 87 83 78 71
92 90 88 87 88 86 79 65 52 45 47 53 58 57 59 65 69 69 66 58 50 45 43 43 44 49 58 69 82 93 98 99 99 99 99 100 101 102 99 96 96 100 100 98 95 87 70 53 47 49 55 64 73 78 84 88 88 88 86 82 79 76 70
94 93 91 90 90 88 81 68 53 47 50 56 59 58 60 67 72 72 69 63 58 55 52 50 50 54 61 70 82 93 98 99 101 101 98 96 95 96 97 99 100 101 101 99 95 88 74 56 48 51 57 65 73 78 80 81 81 78 76 75 74 73 71
96 95 93 92 91 88 82 70 55 47 51 59 61 59 62 67 71 73 73 71 67 64 62 61 62 65 70 79 91 99 101 101 102 100 94 89 90 93 96 98 99 99 99 95 91 88 78 60 49 51 58 66 74 76 75 75 73 68 65 65 66 65 66
97 96 95 95 92 88 82 71 57 48 51 61 65 63 64 68 72 75 79 79 74 71 68 69 72 77 85 95 101 102 101 101 100 98 93 92 93 94 95 96 96 94 91 87 86 88 80 64 52 50 56 67 74 74 73 73 69 62 59 62 65 65 63
99 97 97 95 91 88 82 71 57 47 51 63 70 68 67 70 74 78 82 81 77 72 67 66 69 76 87 98 104 104 102 101 101 101 100 99 99 99 100 100 98 94 91 87 87 89 83 67 53 48 54 66 74 77 80 82 77 68 63 65 68 69 66
101 100 100 96 92 88 81 69 55 47 51 63 72 72 70 72 77 82 84 82 77 71 64 61 63 66 71 79 89 98 103 103 103 103 103 103 103 103 103 104 104 102 101 99 97 95 88 73 56 49 54 65 76 83 89 92 89 81 74 72 72 72 72
103 103 100 94 90 88 79 64 51 45 48 58 67 70 68 68 73 77 77 72 68 64 61 61 63 64 64 65 69 78 88 96 101 102 102 102 104 104 103 104 104 104 104 104 101 97 91 78 60 50 54 65 76 86 92 94 94 90 86 84 83 81 82
102 100 94 86 82 80 72 57 45 41 44 53 66 75 76 76 82 86 79 68 62 62 62 64 67 66 65 66 65 66 70 78 87 95 100 102 103 103 104 103 103 104 103 102 100 97 94 85 66 51 53 64 75 87 93 95 98 98 96 94 92 89 88
102 100 97 93 86 78 65 52 44 41 43 53 68 82 88 90 98 103 92 72 64 67 69 69 70 68 67 69 69 69 68 68 71 81 93 102 103 103 103 103 103 102 102 101 100 99 97 89 72 55 53 63 76 87 93 97 102 105 103 100 98 95 90
101 101 103 101 94 80 63 52 47 44 45 54 69 85 92 93 99 107 97 75 67 71 73 71 72 72 72 74 74 74 75 73 71 73 82 93 101 102 102 102 103 102 102 101 101 100 99 93 79 61 53 62 77 88 93 98 104 105 103 102 102 99 90
101 103 104 97 85 71 59 53 50 47 48 55 69 86 97 96 95 101 97 81 72 73 73 72 73 74 77 79 80 81 81 79 77 76 77 85 96 102 103 103 104 105 105 104 101 99 98 96 84 65 55 63 79 90 96 101 104 103 102 104 104 99 90
103 104 99 86 71 61 56 54 52 51 51 57 70 88 100 98 93 95 95 87 78 74 73 74 76 77 79 82 84 85 85 82 81 80 78 83 93 101 104 105 106 107 105 104 102 100 99 99 88 69 58 65 81 94 101 103 103 102 103 105 104 99 91
92 88 80 68 59 55 54 53 52 53 53 58 72 92 102 99 94 97 99 94 86 79 77 78 78 79 80 82 84 86 85 83 81 79 80 84 92 99 104 106 107 107 104 102 102 101 101 102 93 73 61 66 81 96 103 103 103 104 105 104 104 102 96
74 66 60 55 55 56 55 53 52 52 52 55 69 88 98 97 95 96 98 97 93 88 84 83 83 81 80 81 83 85 84 83 80 79 82 88 93 98 102 104 105 106 104 102 103 102 102 104 96 77 64 68 82 96 104 104 105 106 105 103 104 104 99
Wind_Speed
53 53 53 54 54 54 54 54 54 53 53 52 51 50 49 48 48 48 48 47 46 44 44 44 44 43 42 42 43 43 43 43 44 45 46 47 47 47 48 49 51 53 52 48 47 50 52 53 53 53 53 54 55 56 56 57 57 58 59 60 61 61 62
52 53 53 53 54 54 54 54 53 52 52 51 50 49 48 47 47 48 47 47 46 44 43 43 43 43 42 42 43 43 43 43 44 45 46 46 47 47 48 49 50 53 55 53 50 51 53 54 53 54 54 54 55 56 56 57 58 59 59 60 60 62 62
52 52 53 53 53 53 53 53 52 51 51 50 49 49 48 47 47 47 47 46 45 43 42 43 43 42 41 41 42 43 43 43 44 45 46 46 47 47 48 48 49 52 54 56 54 52 53 54 53 54 55 55 54 55 56 56 57 58 59 60 60 61 62
52 52 52 53 53 53 52 52 51 50 50 49 49 48 47 46 46 46 46 45 44 43 42 42 42 41 40 41 42 42 43 43 44 44 45 46 46 47 47 47 48 50 52 55 56 54 53 54 54 54 55 55 55 55 56 56 57 58 59 60 60 61 61
51 52 52 53 52 52 51 51 50 50 49 48 48 48 47 46 45 45 45 44 44 43 42 42 42 41 41 41 42 42 42 42 43 44 44 45 46 46 46 47 47 49 51 53 55 55 54 54 55 55 55 55 55 56 57 57 58 58 58 59 59 59 59
51 52 52 52 52 51 51 50 49 49 48 47 48 47 47 46 45 45 44 44 43 42 42 42 42 41 41 41 42 41 41 41 42 43 44 44 44 44 45 46 47 48 49 52 53 54 54 54 55 55 55 55 56 58 58 59 58 57 55 55 55 54 53
51 52 52 52 51 51 50 49 49 48 47 46 47 47 46 46 45 44 44 44 43 42 42 42 41 41 41 41 41 40 40 40 41 42 43 43 43 43 44 45 46 47 48 51 52 53 54 54 55 55 56 56 57 59 59 58 57 55 50 48 48 48 47
51 52 52 51 50 50 50 49 48 46 46 46 46 46 46 45 45 45 44 44 43 42 42 41 41 41 41 40 39 39 39 40 40 41 42 41 42 43 44 45 45 46 48 50 51 53 53 54 55 55 56 56 57 58 57 53 52 51 47 43 43 43 43
51 51 51 50 50 50 49 48 47 46 45 45 45 45 45 45 45 45 45 44 43 43 42 42 41 41 40 39 38 38 38 39 39 40 41 41 41 42 43 44 45 46 47 49 51 52 53 54 55 55 55 56 55 55 53 49 47 47 45 43 42 40 39
51 50 50 49 49 49 48 47 46 45 45 45 45 45 45 45 45 45 45 44 43 43 43 42 41 40 39 38 37 37 37 37 38 40 40 41 41 42 43 43 44 45 46 48 50 51 52 54 55 54 53 53 50 49 48 45 43 43 43 43 44 41 37
50 49 49 49 49 48 48 46 45 44 44 44 44 44 45 46 46 46 46 45 44 43 42 41 40 38 37 36 36 35 36 36 37 38 39 40 40 41 42 43 45 46 47 48 50 51 52 53 54 52 49 46 44 43 42 40 38 39 41 41 42 42 38
49 49 48 49 48 48 47 46 44 43 43 43 42 43 44 45 47 48 48 47 47 45 44 41 39 37 35 34 34 34 35 35 36 37 38 39 40 40 41 42 44 46 48 50 51 51 52 53 53 50 45 42 41 40 39 37 35 35 36 35 35 39 39
49 49 48 48 48 47 47 45 43 42 42 42 42 42 42 44 46 48 48 48 47 46 45 43 40 38 36 34 34 34 34 35 36 37 38 39 39 40 40 41 42 44 46 48 50 51 52 51 50 48 45 41 39 39 38 36 34 31 30 31 31 34 37
48 48 47 47 47 47 46 44 43 42 42 42 41 41 41 43 45 47 47 47 46 45 44 43 41 39 37 35 34 34 35 36 37 38 38 39 39 39 40 42 42 42 43 44 46 49 49 48 47 46 45 40 37 37 37 35 33 31 29 31 32 33 35
48 47 47 47 47 47 45 44 42 42 41 41 41 41 41 43 45 46 46 46 45 44 43 42 41 40 38 36 35 34 35 36 37 38 39 39 39 40 41 42 42 41 42 42 43 45 45 45 43 42 41 37 34 34 34 34 35 35 34 36 36 36 36
48 47 46 46 46 46 45 43 42 42 41 41 40 41 42 43 44 45 45 44 43 42 42 41 40 40 38 37 36 35 35 36 37 38 39 39 40 41 42 42 41 40 40 41 42 42 42 41 40 38 36 34 33 33 34 36 39 40 40 41 42 42 40
47 46 46 45 46 46 45 43 41 41 40 40 40 41 42 43 43 44 43 42 41 40 40 40 40 39 39 38 36 35 35 35 36 38 40 41 42 42 42 41 40 39 39 39 40 40 39 38 36 36 35 35 35 35 35 38 42 42 42 42 44 46 44
46 45 45 45 45 45 45 43 41 40 40 39 39 40 41 42 43 43 42 41 39 39 38 38 38 38 39 38 36 35 34 33 34 37 40 42 44 44 44 42 41 40 40 39 39 39 39 39 38 39 40 40 39 39 40 42 45 45 44 45 47 48 48
46 45 44 44 45 45 44 43 41 40 40 39 39 39 40 41 42 42 41 39 38 38 37 37 37 38 38 37 36 34 33 32 33 37 40 42 43 45 45 43 42 43 42 41 40 39 39 38 38 40 41 41 41 41 43 45 47 48 49 50 51 51 52
45 44 43 44 44 44 43 43 42 40 40 39 38 38 39 40 41 40 39 38 38 37 37 37 37 36 36 36 35 33 31 31 34 37 39 41 43 44 45 44 44 45 44 42 41 41 40 37 35 35 36 37 37 38 40 43 46 49 51 53 55 54 55
44 44 43 43 43 43 43 42 42 41 40 39 37 37 37 39 39 39 39 38 38 38 38 37 36 36 35 34 33 31 31 32 33 35 37 40 42 42 43 44 46 46 44 43 42 41 41 38 36 34 33 33 33 33 35 37 40 43 47 51 55 55 55
43 44 43 43 42 42 42 41 41 41 39 38 37 36 35 36 37 37 38 39 39 39 38 37 36 35 33 33 32 31 32 33 34 35 37 39 40 41 43 45 46 45 44 43 42 42 42 40 37 35 33 32 32 32 34 35 36 38 42 46 50 52 53
43 43 43 42 42 41 41 41 41 40 39 37 36 35 34 34 34 35 37 40 40 39 38 37 36 35 33 33 33 32 32 33 34 36 37 37 39 41 43 44 44 44 44 43 43 43 42 40 38 36 34 32 32 33 33 34 33 34 37 41 44 46 49
42 43 43 43 42 41 40 40 40 38 37 36 36 35 33 33 33 34 36 38 38 38 37 37 36 35 34 34 33 33 32 33 34 36 37 38 40 42 42 42 43 43 43 42 42 43 42 40 38 36 34 33 32 32 32 32 32 32 34 37 40 41 43
42 42 43 43 42 41 40 39 38 37 36 35 35 34 33 33 33 34 34 36 37 37 37 37 37 37 37 36 35 34 34 34 34 36 38 39 40 41 41 42 42 42 42 42 42 42 41 39 37 36 34 33 32 32 31 31 31 32 34 36 39 40 41
41 42 42 43 42 42 40 39 38 36 34 34 34 33 33 33 34 33 33 34 35 35 35 36 36 37 37 36 36 35 34 34 34 36 37 38 40 41 41 41 41 42 42 42 41 40 39 37 36 35 34 33 32 31 30 30 32 32 33 36 39 40 39
40 41 42 43 43 42 41 39 37 35 34 33 33 32 33 33 34 33 33 34 33 33 32 31 31 31 32 32 32 32 32 33 33 34 35 37 38 39 39 40 41 42 43 42 41 40 39 37 35 34 33 33 32 31 30 32 33 33 33 35 38 40 39
40 40 42 43 43 42 41 39 37 35 33 32 31 31 32 32 33 33 33 33 33 32 31 29 28 27 28 28 29 30 31 33 34 35 35 35 35 36 37 38 39 40 41 42 41 40 39 38 36 34 33 33 33 32 32 33 33 33 33 34 37 39 39
41 40 41 42 42 42 41 39 36 34 32 31 31 31 32 32 33 33 34 34 33 32 31 30 29 28 29 29 29 30 31 33 34 35 35 34 34 34 35 36 37 38 39 39 39 39 38 37 36 34 33 34 33 32 32 32 32 33 33 34 36 38 37
41 40 41 43 42 42 41 39 37 34 32 31 31 32 33 34 34 36 37 37 35 35 33 32 31 31 31 31 32 31 32 33 34 35 35 34 34 34 34 35 36 37 37 37 37 37 37 36 35 34 33 33 32 31 31 31 32 32 33 34 35 36 32
40 41 42 43 43 43 42 41 39 37 35 33 32 32 33 33 34 36 39 38 36 35 35 34 33 33 33 33 34 33 33 34 34 34 35 34 34 34 34 35 36 36 36 36 35 35 36 36 35 33 32 32 32 31 30 31 31 31 32 33 34 33 28
40 40 41 42 42 42 41 41 40 39 37 35 34 33 34 33 33 35 39 39 36 35 35 35 35 35 35 35 35 35 35 35 35 35 35 35 34 34 34 35 36 36 36 36 35 34 35 35 34 33 32 31 31 30 30 30 30 30 31 32 32 29 26
39 39 40 40 40 39 39 39 39 39 37 36 35 35 35 35 34 35 38 39 36 35 36 36 36 36 36 36 36 36 36 36 36 35 35 35 34 34 33 34 35 36 36 35 34 33 33 33 33 32 31 31 31 30 30 29 29 29 30 30 29 27 25
38 39 39 39 38 37 37 37 38 38 37 36 36 36 36 37 36 35 37 38 37 36 36 36 36 36 36 36 37 37 36 36 36 35 35 35 34 34 33 34 34 35 35 34 33 33 32 32 32 31 31 30 30 30 29 29 28 28 28 28 26 26 26
37 37 38 38 37 36 36 36 36 36 36 36 35 36 37 38 37 36 37 38 37 37 37 37 37 37 37 37 37 37 36 36 35 34 34 33 33 33 32 33 33 33 33 33 32 32 32 32 32 31 30 30 29 29 28 27 26 27 27 26 25 26 26
38 37 36 36 36 36 37 37 36 36 35 35 35 36 38 39 38 37 37 38 38 38 38 38 38 38 38 38 37 37 36 36 35 34 33 32 32 31 31 31 31 32 32 31 31 31 31 31 31 30 29 29 28 28 27 26 25 25 26 25 25 26 27
Wind_Direction
307 307 307 306 306 306 305 305 304 304 303 302 301 299 297 296 294 293 292 291 289 287 284 282 280 278 277 277 275 274 274 273 274 274 275 276 277 278 280 280 281 281 280 278 277 278 278 278 278 277 277 276 276 275 275 275 274 273 272 271 270 268 267
306 306 306 306 305 305 304 304 304 303 302 301 300 298 296 295 294 293 292 291 289 286 283 280 278 277 277 276 275 274 274 274 274 275 275 277 278 278 279 280 281 282 282 280 279 279 279 279 279 279 278 277 276 276 276 276 276 276 275 273 272 271 269
306 306 305 304 304 304 303 303 303 302 301 300 298 297 296 295 294 293 292 291 289 286 282 279 277 277 276 275 274 274 274 275 275 276 276 277 278 279 280 281 281 281 282 282 281 280 280 281 280 279 279 279 278 278 278 277 277 277 277 276 276 274 272
305 305 303 303 303 303 303 303 302 301 300 299 298 297 296 295 294 294 292 290 289 286 282 280 278 277 276 275 274 274 274 275 276 277 278 278 279 279 279 280 280 280 282 283 283 282 282 282 281 281 281 281 280 280 280 280 279 279 279 279 278 277 275
304 303 302 302 303 303 303 302 301 301 300 299 298 297 296 295 294 293 292 290 288 285 282 280 278 277 276 275 274 274 275 276 277 277 278 278 278 278 279 279 279 280 282 282 283 284 284 284 284 283 283 284 284 283 282 282 281 281 281 280 279 278 276
303 302 301 302 303 303 302 301 301 300 300 299 298 297 296 295 294 293 292 289 287 284 282 280 278 276 275 275 274 275 276 277 277 277 277 277 278 278 279 279 280 281 282 283 284 285 285 285 286 286 286 287 287 287 286 285 284 283 282 282 280 278 276
301 301 301 303 303 302 301 301 301 300 300 298 297 297 296 295 294 292 291 289 287 285 282 280 278 276 275 275 276 277 278 278 278 277 277 277 278 279 280 280 281 282 283 284 285 286 286 287 287 287 288 289 290 289 289 289 288 287 284 281 279 276 274
300 301 302 303 302 302 301 301 301 301 300 298 297 296 296 295 293 292 290 289 287 285 283 280 278 277 277 277 278 279 279 279 278 278 278 279 280 280 281 282 282 283 284 285 285 286 286 287 287 288 290 291 292 291 291 291 290 289 286 281 276 272 272
300 301 302 302 302 301 301 301 301 301 299 298 297 297 295 294 292 291 290 290 288 286 284 281 280 279 279 279 280 280 280 279 279 279 280 281 281 281 282 283 283 284 284 285 285 286 287 287 288 291 292 293 292 292 291 291 289 287 285 282 276 269 269
301 301 302 302 302 302 301 301 301 300 299 298 297 297 295 293 292 291 289 289 287 285 283 281 281 281 281 282 281 281 280 279 279 280 281 282 282 281 282 282 283 283 283 283 284 285 287 288 290 292 292 292 291 290 288 288 287 284 282 281 278 272 268
301 302 302 302 302 302 302 301 301 300 299 298 298 297 296 295 294 293 291 290 288 285 283 281 280 280 279 279 278 277 277 277 278 279 279 279 280 280 281 282 283 282 282 283 284 287 288 289 290 292 291 290 289 286 285 286 285 284 282 281 280 276 270
302 302 302 302 302 302 302 302 301 300 298 297 297 296 295 295 294 294 293 292 291 290 288 286 284 282 280 278 277 276 277 278 278 279 280 280 280 281 282 284 284 285 286 287 289 291 293 293 293 293 292 289 288 286 286 288 287 286 284 280 278 276 272
302 302 302 302 302 302 302 302 301 299 298 297 296 295 294 293 292 292 292 292 292 292 291 290 288 286 284 282 281 281 281 281 281 282 281 281 281 282 282 282 282 283 286 289 291 293 294 295 294 293 292 291 291 290 289 289 288 285 280 274 271 270 270
302 302 302 302 302 302 302 302 300 299 297 296 296 295 293 291 290 291 291 291 292 291 290 290 288 287 285 284 283 283 284 284 284 284 283 282 281 280 280 279 280 283 286 288 289 291 293 293 291 289 290 292 293 292 291 291 290 286 278 271 267 265 265
302 302 302 302 302 302 302 302 300 298 298 297 296 295 293 291 291 291 291 291 291 290 289 288 287 286 285 284 284 284 284 284 285 284 284 282 281 280 279 280 283 286 287 288 287 287 287 286 284 285 289 292 293 292 291 290 288 284 280 275 272 268 266
302 302 303 303 302 302 302 302 300 299 298 297 296 294 292 292 292 293 292 291 291 289 288 287 285 285 284 284 284 284 284 285 286 286 284 282 281 280 281 283 286 287 288 289 289 287 283 281 281 284 286 287 287 285 284 281 278 275 275 275 275 273 272
303 303 304 303 302 302 302 302 301 299 297 297 296 294 293 293 294 294 293 292 290 288 286 285 284 284 283 283 283 284 285 287 288 287 285 283 282 282 283 284 285 286 287 288 288 284 279 276 276 275 273 272 270 268 268 268 269 271 272 272 273 275 278
303 304 304 303 303 302 302 303 302 299 297 297 296 295 294 295 295 295 295 293 290 287 285 283 282 282 281 281 283 284 286 288 288 286 284 284 285 286 286 287 288 287 287 287 286 283 279 273 268 266 267 269 268 264 261 261 264 267 268 269 270 274 278
304 304 304 303 303 303 303 303 302 299 298 297 296 296 296 296 297 297 296 294 291 287 284 282 280 280 280 282 283 285 287 287 285 283 283 284 285 286 287 289 289 289 289 291 293 293 289 282 274 269 269 270 270 268 265 263 264 265 265 266 268 270 273
304 304 304 304 303 304 304 303 302 300 298 298 298 297 297 297 298 299 297 294 290 286 283 280 279 279 280 282 284 286 287 285 283 283 285 285 285 286 288 289 288 288 291 294 297 298 297 292 285 279 276 274 272 270 268 266 266 266 266 267 268 269 270
305 304 304 304 305 305 305 303 302 300 299 299 299 299 299 299 300 300 298 293 289 286 283 281 281 281 282 284 285 285 283 281 281 282 281 281 283 285 285 286 287 289 292 295 297 298 297 294 290 287 283 279 276 273 271 269 267 266 266 266 267 268 269
305 305 305 306 306 306 305 303 301 300 300 300 300 299 300 300 301 300 296 292 290 287 286 285 285 285 285 284 283 281 280 280 280 279 279 281 283 282 282 284 287 289 291 293 295 296 296 293 291 288 285 281 278 277 275 273 269 266 264 264 265 267 268
306 305 306 306 306 307 306 303 301 301 301 301 300 300 300 301 301 299 296 294 294 293 292 290 289 288 286 284 282 280 279 279 280 281 282 284 282 281 281 284 286 287 288 290 293 294 294 293 290 288 286 282 280 278 276 274 271 268 266 266 266 266 268
306 306 306 307 307 307 306 303 302 301 301 300 300 300 300 300 299 298 297 298 299 298 296 295 294 292 289 287 286 285 284 283 283 283 283 282 281 281 283 284 284 285 287 289 291 292 293 292 290 288 286 283 281 279 276 274 272 268 267 267 267 267 268
306 306 307 307 307 307 306 304 302 301 301 300 300 300 300 299 299 300 300 301 301 301 299 298 297 295 294 293 292 290 287 285 283 282 281 281 282 282 283 283 284 285 286 287 289 291 292 292 290 287 286 285 282 280 277 274 271 268 267 268 269 269 270
307 307 307 307 307 307 307 305 303 302 301 300 300 300 299 298 299 300 300 298 299 300 299 297 296 295 294 294 293 290 287 284 282 281 281 282 283 283 284 285 286 286 287 288 289 291 292 291 289 286 285 285 284 282 280 277 273 269 268 270 273 274 276
307 308 307 307 307 308 307 306 304 303 301 300 300 299 298 296 297 297 297 297 298 298 297 295 294 293 292 289 286 283 281 279 277 276 277 278 279 281 282 284 285 287 288 289 290 292 293 292 289 287 286 287 287 287 285 282 278 274 272 274 277 280 283
308 309 308 307 308 308 307 306 305 302 300 299 298 296 294 293 293 294 295 297 298 298 299 299 299 297 293 288 282 276 273 272 271 272 273 274 275 276 277 279 280 282 284 286 287 289 292 292 290 288 287 287 287 286 284 282 280 278 277 277 279 282 285
308 309 307 306 307 306 306 305 303 301 299 298 298 297 295 294 295 296 297 298 301 303 305 306 305 301 297 293 289 284 279 276 274 274 274 275 276 277 278 279 280 281 282 283 284 286 289 290 289 287 285 285 285 284 282 280 279 278 278 278 280 283 285
309 309 308 307 307 307 306 306 305 303 302 302 302 302 301 301 302 302 302 303 307 310 312 311 307 303 300 298 296 293 289 285 281 279 278 279 279 281 282 282 283 283 283 284 284 286 287 288 287 285 283 283 283 283 281 280 279 279 280 280 282 283 281
310 311 310 309 309 309 308 307 307 306 306 305 304 303 302 302 303 302 301 303 308 311 312 310 307 304 302 300 298 297 295 292 288 285 283 281 281 281 283 284 284 285 285 285 285 285 285 286 286 284 283 282 283 282 280 279 279 279 279 281 282 281 275
310 310 309 308 307 307 306 306 306 306 306 305 303 302 300 299 299 298 298 302 308 310 309 308 307 305 304 301 299 298 296 294 292 289 286 283 281 280 282 283 284 285 285 286 285 284 283 284 285 284 282 281 282 281 280 279 278 278 278 280 280 276 269
310 309 307 306 305 305 304 303 303 303 303 303 302 301 299 297 297 296 297 300 306 307 306 307 306 305 304 302 299 298 296 294 293 290 287 284 282 280 281 281 282 283 284 285 285 283 283 283 283 282 281 280 281 281 280 279 277 276 277 279 276 269 263
309 308 307 305 304 303 301 300 300 301 301 300 299 299 297 296 296 297 298 300 303 304 305 305 305 305 304 302 299 297 295 293 291 289 287 284 282 280 279 278 279 280 281 283 284 283 282 282 282 281 279 279 279 279 278 277 276 275 277 279 272 262 258
308 307 306 305 304 302 300 299 299 299 299 298 297 296 294 294 296 297 298 299 301 303 303 304 304 304 304 302 300 297 295 292 290 287 285 283 280 278 278 277 277 279 280 281 283 282 281 280 280 279 278 277 277 277 276 274 273 274 278 278 269 258 254
309 307 306 305 304 302 301 301 301 300 299 297 296 294 294 295 296 297 297 298 300 301 302 302 303 304 303 303 302 299 296 293 291 288 286 283 281 279 278 277 278 279 280 281 282 281 279 278 278 278 276 275 276 275 274 272 271 273 278 277 268 257 251